Date String (YYYY-MM-DD hh:mm:ss) UTC,Instrument flags,absolute air pressure of the measurement (hPa),sample flow rate (lpm),inlet stack bypass flow (lpm),air temperature of the measurement (°C),ambient temperature measured by the external sensor (°C),aerosol sample conditioner tube jacket temperature (°C),OPC LED temperature (°C),internal box temperature (°C),relative humidity of the measurement (%),span deviation,mass concentration of particles derived from Lorenz-Mie calculation of OPC scattering (μg/m³),mass concentration of particles derived from Lorenz-Mie calculation of OPC scattering (μg/m³),mass concentration of particles derived from Lorenz-Mie calculation of OPC scattering (μg/m³)
DateTimeUTC,F1_M11,P_M11,Q1_M11,Q2_M11,T1_M11,T2_M11,T3_M11,T4_M11,T5_M11,U1_M11,ZSPAN_M11,X0_M11,X2_M11,X1_M11
2024-02-07 17:00:00,SystemResetWarning,0812.1,5.00,000.00,018.9,018.4,000.0,027.2,020.5,21.0,0004.9,0010.19,0005.72,0005.28
2024-02-07 17:01:00,SystemResetWarning,0812.0,5.00,000.00,018.9,018.4,000.0,027.2,020.5,20.8,0005.0,0010.12,0005.75,0005.30
2024-02-07 17:02:00,SystemResetWarning,0812.0,5.00,000.00,018.9,018.4,000.0,027.2,020.6,20.4,0004.9,0010.19,0005.80,0005.31
2024-02-07 17:03:00,SystemResetWarning,0812.0,5.00,000.00,018.9,018.5,000.0,027.2,020.6,20.1,0004.8,0010.26,0005.76,0005.28
2024-02-07 17:04:00,SystemResetWarning,0812.1,5.00,000.00,018.9,018.5,000.0,027.2,020.6,20.0,0004.9,0010.30,0005.69,0005.24
2024-02-07 17:05:00,SystemResetWarning,0812.1,5.01,000.00,018.9,018.5,000.0,027.2,020.6,20.1,0004.9,0010.09,0005.65,0005.20
2024-02-07 17:06:00,SystemResetWarning,0812.1,5.00,000.00,018.9,018.5,000.0,027.2,020.6,20.1,0003.9,0009.72,0005.62,0005.20
2024-02-07 17:07:00,SystemResetWarning,0812.2,4.99,000.00,018.9,018.5,000.0,027.2,020.6,19.7,0001.9,0009.79,0005.60,0005.21
2024-02-07 17:08:00,SystemResetWarning,0812.1,5.00,000.00,018.9,018.5,000.0,027.2,020.6,19.6,0000.0,0010.29,0005.67,0005.25
2024-02-07 17:09:00,SystemResetWarning,0812.1,5.01,000.00,019.0,018.5,000.0,027.2,020.6,19.3,0000.0,0010.74,0005.69,0005.28
2024-02-07 17:10:00,SystemResetWarning,0812.1,5.00,000.00,019.0,018.5,000.0,027.2,020.6,19.2,0000.0,0010.44,0005.71,0005.29
2024-02-07 17:11:00,SystemResetWarning,0812.0,5.01,000.00,019.0,018.5,000.0,027.2,020.6,19.2,0002.9,0010.42,0005.67,0005.31
2024-02-07 17:12:00,SystemResetWarning,0812.0,5.01,000.00,019.0,018.5,000.0,027.2,020.6,19.1,0001.4,0010.39,0005.65,0005.30
2024-02-07 17:13:00,SystemResetWarning,0812.0,5.00,000.00,019.0,018.5,000.0,027.2,020.6,18.9,0000.0,0010.33,0005.61,0005.30
2024-02-07 17:14:00,SystemResetWarning,0812.0,5.00,000.00,019.0,018.5,000.0,027.2,020.6,19.2,0000.0,0010.15,0005.62,0005.32
2024-02-07 17:15:00,SystemResetWarning,0812.0,5.00,000.00,019.0,018.5,000.0,027.2,020.6,19.7,0000.0,0009.83,0005.63,0005.32
2024-02-07 17:16:00,SystemResetWarning,0812.0,5.00,000.00,019.0,018.5,000.0,027.2,020.6,19.4,0000.0,0009.49,0005.58,0005.30
2024-02-07 17:17:00,SystemResetWarning,0812.0,4.99,000.00,019.0,018.5,000.0,027.2,020.6,19.2,0000.0,0009.47,0005.54,0005.24
2024-02-07 17:18:00,SystemResetWarning,0811.8,5.00,000.00,019.0,018.5,000.0,027.2,020.6,19.4,0000.0,0009.31,0005.50,0005.20
2024-02-07 17:19:00,SystemResetWarning,0811.8,5.01,000.00,019.0,018.5,000.0,027.2,020.6,19.9,0000.0,0009.04,0005.44,0005.14
2024-02-07 17:20:00,SystemResetWarning,0811.8,5.00,000.00,019.0,018.5,000.0,027.2,020.6,19.9,0000.0,0008.91,0005.41,0005.08
2024-02-07 17:21:00,SystemResetWarning,0811.8,4.98,000.00,019.0,018.5,000.0,027.3,020.6,19.5,0000.0,0008.72,0005.32,0005.00
2024-02-07 17:22:00,SystemResetWarning,0811.8,5.01,000.00,019.0,018.5,000.0,027.3,020.6,19.6,0000.0,0008.64,0005.28,0004.94
2024-02-07 17:23:00,SystemResetWarning,0811.9,5.01,000.00,019.0,018.5,000.0,027.3,020.6,19.8,0000.0,0009.46,0005.22,0004.88
2024-02-07 17:24:00,SystemResetWarning,0811.9,5.00,000.00,019.0,018.5,000.0,027.3,020.6,19.9,0000.0,0009.40,0005.18,0004.84
2024-02-07 17:25:00,SystemResetWarning,0812.0,4.99,000.00,019.0,018.5,000.0,027.3,020.6,19.6,0000.0,0009.41,0005.15,0004.80
2024-02-07 17:26:00,SystemResetWarning,0811.9,4.99,000.00,019.0,018.5,000.0,027.3,020.6,20.2,0000.0,0009.40,0005.09,0004.75
2024-02-07 17:27:00,SystemResetWarning,0811.8,5.01,000.00,019.0,018.5,000.0,027.3,020.6,20.5,0000.0,0009.44,0005.10,0004.71
2024-02-07 17:28:00,SystemResetWarning,0811.8,5.02,000.00,019.0,018.5,000.0,027.3,020.6,20.8,0000.0,0009.39,0005.07,0004.70
2024-02-07 17:29:00,SystemResetWarning,0811.8,5.00,000.00,019.0,018.5,000.0,027.3,020.6,20.9,0000.0,0009.38,0005.05,0004.68
2024-02-07 17:30:00,SystemResetWarning,0811.7,5.00,000.00,019.0,018.5,000.0,027.3,020.6,21.0,0000.0,0009.34,0005.05,0004.66
2024-02-07 17:31:00,SystemResetWarning,0811.7,5.00,000.00,019.0,018.5,000.0,027.3,020.6,21.2,0000.0,0008.84,0005.03,0004.65
2024-02-07 17:32:00,SystemResetWarning,0811.8,5.00,000.00,019.0,018.5,000.0,027.3,020.6,21.5,0000.0,0008.88,0005.05,0004.66
2024-02-07 17:33:00,SystemResetWarning,0811.7,5.00,000.00,019.0,018.5,000.0,027.3,020.7,21.5,0000.0,0008.93,0005.07,0004.67
2024-02-07 17:34:00,SystemResetWarning,0811.7,5.00,000.00,019.0,018.5,000.0,027.3,020.7,21.3,0000.0,0008.29,0005.06,0004.66
2024-02-07 17:35:00,SystemResetWarning,0811.6,5.00,000.00,019.0,018.5,000.0,027.3,020.7,20.4,0000.0,0008.15,0005.05,0004.65
2024-02-07 17:36:00,SystemResetWarning,0811.6,5.01,000.00,019.0,018.5,000.0,027.3,020.7,19.4,0000.0,0008.15,0005.04,0004.64
2024-02-07 17:37:00,SystemResetWarning,0811.6,4.99,000.00,019.0,018.5,000.0,027.3,020.7,19.0,0000.0,0008.12,0005.04,0004.63
2024-02-07 17:38:00,SystemResetWarning,0811.6,4.99,000.00,019.0,018.5,000.0,027.3,020.7,18.6,0000.0,0008.01,0004.98,0004.61
2024-02-07 17:39:00,SystemResetWarning,0811.6,4.99,000.00,019.0,018.5,000.0,027.3,020.7,18.6,0000.0,0007.92,0004.93,0004.58
2024-02-07 17:40:00,SystemResetWarning,0811.6,5.00,000.00,019.0,018.5,000.0,027.3,020.7,18.4,0000.0,0007.87,0004.89,0004.54
2024-02-07 17:41:00,SystemResetWarning,0811.6,5.01,000.00,019.0,018.5,000.0,027.3,020.7,18.5,0000.0,0007.83,0004.84,0004.50
2024-02-07 17:42:00,SystemResetWarning,0811.6,5.01,000.00,019.1,018.6,000.0,027.3,020.7,18.5,0000.0,0007.62,0004.79,0004.47
2024-02-07 17:43:00,SystemResetWarning,0811.6,5.00,000.00,019.1,018.6,000.0,027.3,020.7,18.8,0000.0,0007.52,0004.74,0004.44
2024-02-07 17:44:00,SystemResetWarning,0811.7,4.99,000.00,019.1,018.6,000.0,027.3,020.7,18.6,0000.0,0007.44,0004.68,0004.39
2024-02-07 17:45:00,SystemResetWarning,0811.6,4.99,000.00,019.1,018.6,000.0,027.3,020.7,18.6,0000.0,0007.35,0004.68,0004.37
2024-02-07 17:46:00,SystemResetWarning,0811.6,5.01,000.00,019.1,018.6,000.0,027.3,020.8,19.7,0000.0,0007.31,0004.66,0004.34
2024-02-07 17:47:00,SystemResetWarning,0811.6,5.00,000.00,019.1,018.6,000.0,027.4,020.8,20.2,0000.0,0007.19,0004.62,0004.32
2024-02-07 17:48:00,SystemResetWarning,0811.7,5.00,000.00,019.1,018.6,000.0,027.4,020.8,20.3,0000.0,0006.94,0004.57,0004.30
2024-02-07 17:49:00,SystemResetWarning,0811.6,5.00,000.00,019.1,018.6,000.0,027.4,020.8,20.4,0000.0,0006.83,0004.56,0004.30
2024-02-07 17:50:00,SystemResetWarning,0811.6,5.00,000.00,019.1,018.6,000.0,027.4,020.8,19.7,0000.0,0007.11,0004.63,0004.32
2024-02-07 17:51:00,SystemResetWarning,0811.6,5.00,000.00,019.1,018.6,000.0,027.4,020.8,19.0,0000.0,0007.26,0004.68,0004.36
2024-02-07 17:52:00,SystemResetWarning,0811.7,4.99,000.00,019.1,018.7,000.0,027.4,020.8,19.5,0000.0,0007.46,0004.78,0004.41
2024-02-07 17:53:00,SystemResetWarning,0811.6,4.99,000.00,019.1,018.7,000.0,027.4,020.8,19.9,0000.0,0008.22,0004.86,0004.47
2024-02-07 17:54:00,SystemResetWarning,0811.6,5.01,000.00,019.1,018.7,000.0,027.4,020.8,20.2,0000.0,0008.84,0004.93,0004.53
2024-02-07 17:55:00,SystemResetWarning,0811.6,5.01,000.00,019.2,018.7,000.0,027.4,020.8,19.9,0000.0,0008.91,0004.96,0004.57
2024-02-07 17:56:00,SystemResetWarning,0811.6,5.01,000.00,019.2,018.7,000.0,027.4,020.8,19.8,0000.0,0008.89,0004.98,0004.60
2024-02-07 17:57:00,SystemResetWarning,0811.5,4.99,000.00,019.2,018.7,000.0,027.4,020.8,20.0,0000.0,0008.95,0005.03,0004.65
2024-02-07 17:58:00,SystemResetWarning,0811.5,4.98,000.00,019.2,018.7,000.0,027.4,020.8,20.0,0000.0,0009.02,0005.09,0004.68
2024-02-07 17:59:00,SystemResetWarning,0811.5,5.01,000.00,019.2,018.7,000.0,027.4,020.8,19.1,0000.0,0009.11,0005.12,0004.71
